User: anonymous   Login
Location: Unspecified
(0.0000°N, 0.0000°E)
Time: 01:44:16
(UTC+00:00)
Language:

KORONAS-FOTON - Orbit

View from above orbital plane
View from above orbital plane
View from above satellite
View from above satellite

Ground track
Ground track

The orbit data is extracted from the following two-line orbital elements,

1 33504U 09003A   17177.68014042 +.00000625 +00000-0 +31749-4 0  9996
2 33504 082.4422 223.5473 0021130 078.5072 281.8531 15.14835337462911
Epoch (UTC): 26 June 2017 16:19:24
Eccentricity: 0.0021130
inclination: 82.4422°
perigee height: 507 km
apogee height: 536 km
right ascension of ascending node: 223.5473°
argument of perigee: 78.5072°
revolutions per day: 15.14835337
mean anomaly at epoch: 281.8531°
orbit number at epoch: 46291

The dashed part of the orbit path shows where the satellite is in the earth's shadow,  

DLR